FREGAT DEB

基本信息
目录编号:
48835
目录名称:
FREGAT DEB
国际标识:
2011-037NZ
轨道中心:
EARTH
物体状态:
已陨落(2023-08-18)
发射日期:
2011-07-18 UTC
轨道信息
数据来源: 国际轨道数据
星历时间: 2023-08-14T10:52:27+0800
半长轴: 6679.521km
偏心率: 0.0126935
轨道倾角: 51.440°
近地点辐角: 19.574°
升交点赤经: 83.101°
平近点角: 341.007°
近地点: 216.599km
远地点: 386.173km
周期: 90.548分钟
每日圈数: 15.903213
详细信息
发射场:
TTMTR
轨道高度:
LEO
数据来源:
AOE Integration Group
参考系:
TEME
时间系统:
UTC
历元类型:
SGP4
2D轨道图
3D轨道图
轨道高度分析图
轨道倾角分析图
轨道综合分析图
查看轨道综合分析图